When you browse on this site, cookies collect data to enhance your experience and personalize the content and advertising you see.
Visit our Privacy Policy to learn more. By continuing to use the site, you agree to this use of cookies and data.
  • En España
  • Lista de países
  • Para 7 días
  • Temperatura del agua
  • El tiempo en el mapa
  • Informadores
  • user-avatar
    Iniciar sesión

    Tiempo cada hora Rimini

    Hoy, 21 Agosto, Miércoles

    Tiempo Temperatura Precipitaciones Viento Presión Humedad
    00:00 +27°C° 0 mm 2 mps 761 mmHg 53%
    01:00 +27°C° 0 mm 2 mps 761 mmHg 52%
    02:00 +27°C° 0 mm 1 mps 761 mmHg 51%
    03:00 +26°C° 0 mm 1 mps 761 mmHg 50%
    04:00 +26°C° 0 mm 1 mps 761 mmHg 50%
    05:00 +27°C° 0 mm 2 mps 761 mmHg 49%
    06:00 +27°C° 0 mm 2 mps 761 mmHg 48%
    07:00 +28°C° 0 mm 3 mps 762 mmHg 47%
    08:00 +29°C° 0 mm 3 mps 762 mmHg 45%
    09:00 +31°C° 0 mm 3 mps 762 mmHg 42%
    10:00 +34°C° 0 mm 3 mps 762 mmHg 39%
    11:00 +35°C° 0 mm 4 mps 762 mmHg 38%
    12:00 +35°C° 0 mm 4 mps 762 mmHg 38%
    13:00 +36°C° 0 mm 4 mps 762 mmHg 37%
    14:00 +35°C° 0 mm 5 mps 762 mmHg 41%
    15:00 +34°C° 0 mm 5 mps 761 mmHg 44%
    16:00 +33°C° 0 mm 5 mps 761 mmHg 48%
    17:00 +30°C° 0 mm 5 mps 761 mmHg 55%
    18:00 +29°C° 0 mm 4 mps 762 mmHg 63%
    19:00 +27°C° 0 mm 4 mps 762 mmHg 71%
    20:00 +27°C° 0 mm 4 mps 762 mmHg 74%
    21:00 +26°C° 0 mm 4 mps 762 mmHg 77%
    22:00 +25°C° 0 mm 4 mps 763 mmHg 80%
    23:00 +25°C° 0 mm 4 mps 763 mmHg 82%

    Mañana, 22 Agosto, Jueves

    Tiempo Temperatura Precipitaciones Viento Presión Humedad
    00:00 +25°C° 0 mm 3 mps 763 mmHg 84%
    01:00 +24°C° 0 mm 3 mps 763 mmHg 86%
    02:00 +23°C° 0 mm 4 mps 763 mmHg 87%
    03:00 +23°C° 0 mm 4 mps 763 mmHg 88%
    04:00 +23°C° 0 mm 4 mps 763 mmHg 89%
    05:00 +25°C° 0 mm 4 mps 763 mmHg 86%
    06:00 +25°C° 0 mm 3 mps 763 mmHg 83%
    07:00 +26°C° 0 mm 3 mps 763 mmHg 80%
    08:00 +27°C° 0.1 mm 3 mps 763 mmHg 73%
    09:00 +28°C° 0.1 mm 3 mps 763 mmHg 65%
    10:00 +29°C° 0.1 mm 3 mps 763 mmHg 58%
    11:00 +30°C° 0.2 mm 3 mps 763 mmHg 56%
    12:00 +30°C° 0.2 mm 3 mps 763 mmHg 54%
    13:00 +31°C° 0.2 mm 3 mps 763 mmHg 52%
    14:00 +30°C° 0.3 mm 3 mps 762 mmHg 55%
    15:00 +30°C° 0.3 mm 2 mps 762 mmHg 57%
    16:00 +29°C° 0.3 mm 2 mps 762 mmHg 60%
    17:00 +28°C° 0.3 mm 2 mps 762 mmHg 66%
    18:00 +27°C° 0.3 mm 2 mps 762 mmHg 72%
    19:00 +26°C° 0.3 mm 3 mps 762 mmHg 78%
    20:00 +25°C° 0.1 mm 2 mps 763 mmHg 77%
    21:00 +25°C° 0.1 mm 2 mps 763 mmHg 76%
    22:00 +24°C° 0.1 mm 2 mps 763 mmHg 75%
    23:00 +24°C° 0 mm 1 mps 763 mmHg 75%

    Pasado mañana, 23 Agosto, Viernes

    Tiempo Temperatura Precipitaciones Viento Presión Humedad
    00:00 +24°C° 0 mm 1 mps 763 mmHg 75%
    01:00 +23°C° 0 mm 1 mps 763 mmHg 75%
    02:00 +23°C° 0.1 mm 1 mps 763 mmHg 77%
    03:00 +23°C° 0.1 mm 2 mps 763 mmHg 78%
    04:00 +23°C° 0.1 mm 2 mps 763 mmHg 79%
    05:00 +23°C° 0 mm 2 mps 763 mmHg 78%
    06:00 +24°C° 0 mm 2 mps 763 mmHg 78%
    07:00 +25°C° 0 mm 2 mps 763 mmHg 77%
    08:00 +25°C° 1.3 mm 3 mps 763 mmHg 79%
    09:00 +25°C° 1.3 mm 4 mps 763 mmHg 81%
    10:00 +25°C° 1.3 mm 5 mps 763 mmHg 83%
    11:00 +26°C° 0.5 mm 4 mps 763 mmHg 75%
    12:00 +27°C° 0.5 mm 3 mps 763 mmHg 67%
    13:00 +29°C° 0.5 mm 3 mps 763 mmHg 59%
    14:00 +29°C° 0 mm 3 mps 763 mmHg 58%
    15:00 +29°C° 0 mm 3 mps 763 mmHg 57%
    16:00 +29°C° 0 mm 3 mps 762 mmHg 57%
    17:00 +28°C° 0 mm 2 mps 762 mmHg 61%
    18:00 +27°C° 0 mm 2 mps 763 mmHg 65%
    19:00 +26°C° 0 mm 1 mps 763 mmHg 70%
    20:00 +25°C° 0 mm 1 mps 763 mmHg 70%
    21:00 +25°C° 0 mm 1 mps 763 mmHg 70%
    22:00 +24°C° 0 mm 1 mps 763 mmHg 70%
    23:00 +24°C° 0 mm 1 mps 763 mmHg 70%

    24 Agosto, Sábado

    Tiempo Temperatura Precipitaciones Viento Presión Humedad
    00:00 +24°C° 0 mm 1 mps 762 mmHg 70%
    01:00 +24°C° 0 mm 1 mps 762 mmHg 70%
    02:00 +23°C° 0 mm 1 mps 762 mmHg 72%
    03:00 +23°C° 0 mm 1 mps 762 mmHg 73%
    04:00 +23°C° 0 mm 1 mps 762 mmHg 75%
    05:00 +23°C° 0 mm 2 mps 762 mmHg 72%
    06:00 +24°C° 0 mm 2 mps 762 mmHg 70%
    07:00 +25°C° 0 mm 2 mps 762 mmHg 68%
    08:00 +27°C° 0 mm 2 mps 762 mmHg 63%
    09:00 +29°C° 0 mm 2 mps 762 mmHg 59%
    10:00 +30°C° 0 mm 2 mps 762 mmHg 54%
    11:00 +31°C° 0 mm 2 mps 762 mmHg 50%
    12:00 +32°C° 0 mm 2 mps 762 mmHg 46%
    13:00 +34°C° 0 mm 2 mps 762 mmHg 43%
    14:00 +34°C° 0 mm 3 mps 761 mmHg 45%
    15:00 +34°C° 0 mm 3 mps 761 mmHg 48%
    16:00 +33°C° 0 mm 3 mps 760 mmHg 51%
    17:00 +30°C° 0.5 mm 3 mps 761 mmHg 59%
    18:00 +28°C° 0.5 mm 3 mps 761 mmHg 67%
    19:00 +26°C° 0.5 mm 2 mps 761 mmHg 74%
    20:00 +26°C° 0.2 mm 2 mps 761 mmHg 75%
    21:00 +25°C° 0.2 mm 2 mps 761 mmHg 76%
    22:00 +24°C° 0.2 mm 1 mps 761 mmHg 76%
    23:00 +24°C° 0 mm 1 mps 761 mmHg 75%

    25 Agosto, Domingo

    Tiempo Temperatura Precipitaciones Viento Presión Humedad
    00:00 +24°C° 0 mm 1 mps 761 mmHg 73%
    01:00 +24°C° 0 mm 1 mps 761 mmHg 72%
    02:00 +24°C° 0 mm 1 mps 761 mmHg 72%
    03:00 +24°C° 0 mm 1 mps 761 mmHg 72%
    04:00 +23°C° 0 mm 1 mps 761 mmHg 73%
    05:00 +24°C° 0 mm 2 mps 761 mmHg 71%
    06:00 +25°C° 0 mm 2 mps 761 mmHg 70%
    07:00 +26°C° 0 mm 2 mps 761 mmHg 69%
    08:00 +27°C° 0 mm 2 mps 761 mmHg 63%
    09:00 +29°C° 0 mm 3 mps 761 mmHg 56%
    10:00 +31°C° 0 mm 3 mps 761 mmHg 50%
    11:00 +33°C° 0 mm 3 mps 761 mmHg 47%
    12:00 +34°C° 0 mm 3 mps 761 mmHg 44%
    13:00 +35°C° 0 mm 3 mps 761 mmHg 40%
    14:00 +34°C° 0 mm 3 mps 761 mmHg 42%
    15:00 +34°C° 0 mm 3 mps 760 mmHg 44%
    16:00 +34°C° 0 mm 2 mps 760 mmHg 45%
    17:00 +31°C° 0 mm 2 mps 760 mmHg 51%
    18:00 +29°C° 0 mm 1 mps 760 mmHg 56%
    19:00 +28°C° 0 mm 1 mps 760 mmHg 62%
    20:00 +27°C° 0 mm 1 mps 760 mmHg 63%
    21:00 +27°C° 0 mm 1 mps 761 mmHg 64%
    22:00 +27°C° 0 mm 1 mps 761 mmHg 65%
    23:00 +26°C° 0 mm 1 mps 761 mmHg 65%

    26 Agosto, Lunes

    Tiempo Temperatura Precipitaciones Viento Presión Humedad
    00:00 +26°C° 0 mm 1 mps 761 mmHg 65%
    01:00 +25°C° 0 mm 1 mps 761 mmHg 66%
    02:00 +25°C° 0 mm 1 mps 761 mmHg 67%
    03:00 +25°C° 0 mm 2 mps 761 mmHg 68%
    04:00 +25°C° 0 mm 2 mps 761 mmHg 69%
    05:00 +25°C° 0 mm 2 mps 761 mmHg 67%
    06:00 +26°C° 0 mm 3 mps 761 mmHg 65%
    07:00 +27°C° 0 mm 3 mps 761 mmHg 64%
    08:00 +29°C° 0 mm 3 mps 761 mmHg 57%
    09:00 +31°C° 0 mm 3 mps 762 mmHg 51%
    10:00 +33°C° 0 mm 4 mps 762 mmHg 45%
    11:00 +34°C° 0 mm 4 mps 762 mmHg 43%
    12:00 +35°C° 0 mm 4 mps 762 mmHg 42%
    13:00 +35°C° 0 mm 4 mps 761 mmHg 40%
    14:00 +35°C° 0 mm 3 mps 761 mmHg 41%
    15:00 +35°C° 0 mm 3 mps 761 mmHg 41%
    16:00 +35°C° 0 mm 2 mps 761 mmHg 42%
    17:00 +32°C° 0 mm 2 mps 761 mmHg 47%
    18:00 +30°C° 0 mm 1 mps 761 mmHg 53%
    19:00 +26°C° 0 mm 0 mps 761 mmHg 58%
    20:00 +26°C° 0 mm 0 mps 761 mmHg 60%
    21:00 +25°C° 0 mm 0 mps 761 mmHg 61%
    22:00 +25°C° 0 mm 0 mps 761 mmHg 63%
    23:00 +26°C° 0 mm 1 mps 762 mmHg 62%
    Mostrar más